Location: Royer Oaks
(36.2112°N, 118.8127°W)
Time: 09:13:40
(UTC-07:00)

N. Korean satellite - Visible Passes

Search period start: 04 August 2021 00:00
Search period end: 14 August 2021 00:00
Orbit: 451 x 498 km, 97.2° (Epoch: 03 August)

Date Brightness Start Highest point End Pass type
(mag) Time Alt. Az. Time Alt. Az. Time Alt. Az.
07 Aug 9.6 05:16:00 10° ENE 05:17:42 13° E 05:19:22 10° ESE visible
10 Aug 9.4 05:26:01 10° NE 05:28:28 18° E 05:30:53 10° SE visible
13 Aug 8.9 05:36:18 10° NE 05:39:11 25° E 05:42:02 10° SSE visible
